Hourly Weather Sudzioka

Today, 20 January, Wednesday

Time Temperature Precipitation Wind Pressure Humidity
00:00 +3°C° 0 mm 1 mps 768 mmHg 45%
01:00 +2°C° 0 mm 2 mps 768 mmHg 47%
02:00 +2°C° 0 mm 2 mps 768 mmHg 50%
03:00 +2°C° 0 mm 2 mps 767 mmHg 49%
04:00 +2°C° 0 mm 2 mps 768 mmHg 53%
05:00 +2°C° 0 mm 2 mps 768 mmHg 57%
06:00 +2°C° 0 mm 2 mps 769 mmHg 61%
07:00 +4°C° 0 mm 2 mps 769 mmHg 59%
08:00 +5°C° 0 mm 2 mps 769 mmHg 58%
09:00 +7°C° 0 mm 2 mps 769 mmHg 55%
10:00 +8°C° 0 mm 2 mps 769 mmHg 54%
11:00 +9°C° 0 mm 1 mps 769 mmHg 52%
12:00 +10°C° 0 mm 1 mps 769 mmHg 51%
13:00 +9°C° 0 mm 2 mps 768 mmHg 54%
14:00 +9°C° 0 mm 2 mps 768 mmHg 56%
15:00 +9°C° 0 mm 3 mps 767 mmHg 58%
16:00 +8°C° 0 mm 2 mps 768 mmHg 65%
17:00 +7°C° 0 mm 2 mps 769 mmHg 73%
18:00 +6°C° 0 mm 1 mps 769 mmHg 80%
19:00 +6°C° 0 mm 1 mps 769 mmHg 80%
20:00 +6°C° 0 mm 1 mps 769 mmHg 80%
21:00 +5°C° 0 mm 1 mps 769 mmHg 77%
22:00 +4°C° 0 mm 2 mps 769 mmHg 77%
23:00 +4°C° 0 mm 2 mps 769 mmHg 78%

Tomorrow, 21 January, Thursday

Time Temperature Precipitation Wind Pressure Humidity
00:00 +4°C° 0 mm 2 mps 769 mmHg 79%
01:00 +4°C° 0 mm 2 mps 769 mmHg 76%
02:00 +4°C° 0 mm 2 mps 769 mmHg 73%
03:00 +4°C° 0 mm 2 mps 768 mmHg 71%
04:00 +4°C° 0 mm 2 mps 768 mmHg 65%
05:00 +3°C° 0 mm 2 mps 768 mmHg 60%
06:00 +3°C° 0 mm 2 mps 768 mmHg 54%
07:00 +5°C° 0 mm 2 mps 768 mmHg 50%
08:00 +8°C° 0 mm 1 mps 768 mmHg 45%
09:00 +9°C° 0 mm 1 mps 768 mmHg 41%
10:00 +11°C° 0 mm 1 mps 767 mmHg 39%
11:00 +12°C° 0 mm 2 mps 767 mmHg 37%
12:00 +13°C° 0 mm 2 mps 766 mmHg 36%
13:00 +14°C° 0 mm 2 mps 766 mmHg 36%
14:00 +14°C° 0 mm 2 mps 765 mmHg 36%
15:00 +14°C° 0 mm 2 mps 765 mmHg 36%
16:00 +12°C° 0 mm 2 mps 765 mmHg 42%
17:00 +9°C° 0 mm 2 mps 765 mmHg 47%
18:00 +7°C° 0 mm 2 mps 765 mmHg 53%
19:00 +7°C° 0 mm 2 mps 765 mmHg 52%
20:00 +7°C° 0 mm 2 mps 765 mmHg 50%
21:00 +5°C° 0 mm 3 mps 765 mmHg 49%
22:00 +5°C° 0 mm 3 mps 765 mmHg 46%
23:00 +5°C° 0 mm 3 mps 765 mmHg 44%

Day after tomorrow, 22 January, Friday

Time Temperature Precipitation Wind Pressure Humidity
00:00 +5°C° 0 mm 3 mps 764 mmHg 41%
01:00 +5°C° 0 mm 3 mps 764 mmHg 42%
02:00 +5°C° 0 mm 3 mps 763 mmHg 43%
03:00 +6°C° 0 mm 4 mps 763 mmHg 43%
04:00 +6°C° 0 mm 4 mps 762 mmHg 47%
05:00 +6°C° 0 mm 4 mps 762 mmHg 50%
06:00 +6°C° 0 mm 4 mps 762 mmHg 54%
07:00 +8°C° 0 mm 4 mps 762 mmHg 53%
08:00 +10°C° 0 mm 4 mps 762 mmHg 51%
09:00 +12°C° 0 mm 3 mps 762 mmHg 50%
10:00 +14°C° 0 mm 4 mps 761 mmHg 50%
11:00 +15°C° 0 mm 4 mps 761 mmHg 50%
12:00 +18°C° 0 mm 4 mps 760 mmHg 50%
13:00 +17°C° 0 mm 4 mps 760 mmHg 56%
14:00 +15°C° 0 mm 4 mps 760 mmHg 61%
15:00 +14°C° 0 mm 4 mps 760 mmHg 67%
16:00 +13°C° 0 mm 4 mps 760 mmHg 72%
17:00 +12°C° 0 mm 3 mps 760 mmHg 77%
18:00 +11°C° 0 mm 3 mps 760 mmHg 82%
19:00 +11°C° 0 mm 3 mps 760 mmHg 82%
20:00 +11°C° 0 mm 3 mps 761 mmHg 82%
21:00 +10°C° 0 mm 2 mps 761 mmHg 82%
22:00 +10°C° 0 mm 2 mps 761 mmHg 82%
23:00 +10°C° 0 mm 2 mps 761 mmHg 81%

23 January, Saturday

Time Temperature Precipitation Wind Pressure Humidity
00:00 +10°C° 0 mm 2 mps 761 mmHg 81%
01:00 +10°C° 0 mm 2 mps 761 mmHg 81%
02:00 +12°C° 0 mm 2 mps 761 mmHg 81%
03:00 +11°C° 0 mm 3 mps 760 mmHg 81%
04:00 +11°C° 0 mm 3 mps 760 mmHg 80%
05:00 +10°C° 0 mm 3 mps 760 mmHg 79%
06:00 +10°C° 0 mm 3 mps 760 mmHg 79%
07:00 +11°C° 0 mm 4 mps 761 mmHg 77%
08:00 +11°C° 0 mm 4 mps 761 mmHg 76%
09:00 +11°C° 0 mm 4 mps 761 mmHg 75%
10:00 +11°C° 0.1 mm 4 mps 761 mmHg 76%
11:00 +11°C° 0.1 mm 4 mps 761 mmHg 77%
12:00 +11°C° 0.1 mm 4 mps 760 mmHg 78%
13:00 +11°C° 0.8 mm 4 mps 760 mmHg 82%
14:00 +10°C° 0.8 mm 4 mps 760 mmHg 86%
15:00 +10°C° 0.8 mm 4 mps 760 mmHg 90%
16:00 +9°C° 0.9 mm 5 mps 760 mmHg 90%
17:00 +9°C° 0.9 mm 5 mps 760 mmHg 90%
18:00 +9°C° 0.9 mm 6 mps 760 mmHg 89%
19:00 +9°C° 0.6 mm 6 mps 760 mmHg 89%
20:00 +9°C° 0.6 mm 6 mps 759 mmHg 88%
21:00 +10°C° 0.6 mm 6 mps 759 mmHg 88%
22:00 +10°C° 0.3 mm 6 mps 759 mmHg 87%
23:00 +10°C° 0.3 mm 7 mps 758 mmHg 86%

24 January, Sunday

Time Temperature Precipitation Wind Pressure Humidity
00:00 +10°C° 0.3 mm 7 mps 758 mmHg 86%
01:00 +10°C° 0.1 mm 7 mps 757 mmHg 85%
02:00 +10°C° 0.1 mm 8 mps 757 mmHg 84%
03:00 +10°C° 0.1 mm 8 mps 757 mmHg 84%
04:00 +10°C° 0.5 mm 8 mps 757 mmHg 84%
05:00 +10°C° 0.5 mm 8 mps 756 mmHg 85%
06:00 +9°C° 0.5 mm 8 mps 756 mmHg 86%
07:00 +9°C° 2.1 mm 8 mps 757 mmHg 87%
08:00 +7°C° 2.1 mm 8 mps 757 mmHg 88%
09:00 +8°C° 2.1 mm 7 mps 758 mmHg 90%
10:00 +8°C° 1.9 mm 7 mps 758 mmHg 88%
11:00 +8°C° 1.9 mm 6 mps 758 mmHg 87%
12:00 +8°C° 1.9 mm 5 mps 758 mmHg 85%
13:00 +8°C° 0.5 mm 5 mps 758 mmHg 84%
14:00 +10°C° 0.5 mm 4 mps 758 mmHg 82%
15:00 +10°C° 0.5 mm 3 mps 759 mmHg 80%
16:00 +10°C° 0.7 mm 3 mps 759 mmHg 83%
17:00 +8°C° 0.7 mm 4 mps 760 mmHg 86%
18:00 +7°C° 0.7 mm 4 mps 761 mmHg 89%
19:00 +7°C° 0.1 mm 4 mps 761 mmHg 88%
20:00 +7°C° 0.1 mm 4 mps 762 mmHg 87%
21:00 +8°C° 0.1 mm 3 mps 762 mmHg 85%
22:00 +7°C° 0 mm 3 mps 763 mmHg 85%
23:00 +7°C° 0 mm 3 mps 763 mmHg 84%

25 January, Monday

Time Temperature Precipitation Wind Pressure Humidity
00:00 +7°C° 0 mm 2 mps 764 mmHg 84%
01:00 +7°C° 0 mm 2 mps 764 mmHg 84%
02:00 +6°C° 0 mm 2 mps 764 mmHg 84%
03:00 +6°C° 0 mm 2 mps 764 mmHg 84%
04:00 +6°C° 0 mm 2 mps 765 mmHg 83%
05:00 +5°C° 0 mm 2 mps 765 mmHg 82%
06:00 +5°C° 0 mm 2 mps 766 mmHg 81%
07:00 +6°C° 0 mm 2 mps 767 mmHg 77%
08:00 +7°C° 0 mm 2 mps 767 mmHg 72%
09:00 +9°C° 0 mm 2 mps 768 mmHg 68%
10:00 +11°C° 0 mm 1 mps 768 mmHg 62%
11:00 +13°C° 0 mm 1 mps 768 mmHg 56%
12:00 +14°C° 0 mm 1 mps 768 mmHg 50%
13:00 +14°C° 0 mm 1 mps 768 mmHg 52%
14:00 +14°C° 0 mm 2 mps 768 mmHg 53%
15:00 +14°C° 0 mm 2 mps 768 mmHg 54%
16:00 +12°C° 0 mm 2 mps 768 mmHg 63%
17:00 +10°C° 0 mm 1 mps 769 mmHg 71%
18:00 +9°C° 0 mm 1 mps 769 mmHg 79%
19:00 +8°C° 0 mm 1 mps 769 mmHg 80%
20:00 +8°C° 0 mm 1 mps 770 mmHg 80%
21:00 +8°C° 0 mm 1 mps 770 mmHg 81%
22:00 +8°C° 0 mm 1 mps 770 mmHg 82%
23:00 +8°C° 0 mm 1 mps 770 mmHg 82%
Show more